GW1728 Weather Reports


Display with metric or nautical units.
time (UTC)temp
F
wind
direction
speed
MPH
gust
MPH
rain 1hr
in
rain 24hr
in
rain mn
in
humidity
%
barometer
mb
20260901153459 63 123 6.0 7.0 0.00 0.00 0.00 53 1014.3
20260901152958 63 138 6.0 7.0 0.00 0.00 0.00 54 1014.4
20260901152453 63 112 3.0 3.0 0.00 0.00 0.00 56 1014.3
20260901151952 63 113 5.0 6.0 0.00 0.00 0.00 55 1014.4
20260901151448 62 132 5.0 6.0 0.00 0.00 0.00 54 1014.2
20260901150947 62 99 3.0 3.0 0.00 0.00 0.00 56 1014.3
20260901150445 62 99 3.0 5.0 0.00 0.00 0.00 58 1014.3
20260901145943 61 144 2.0 2.0 0.00 0.00 0.00 61 1014.6
20260901145437 60 148 1.0 2.0 0.00 0.00 0.00 61 1014.3
20260901144932 61 145 0.0 1.0 0.00 0.00 0.00 61 1014.5
20260901144427 60 132 0.0 1.0 0.00 0.00 0.00 63 1014.6
20260901143923 58 202 0.0 0.0 0.00 0.00 0.00 65 1014.4
20260901143419 58 187 0.0 0.0 0.00 0.00 0.00 65 1014.6
20260901142915 57 195 1.0 1.0 0.00 0.00 0.00 65 1014.6
20260901142414 57 196 2.0 2.0 0.00 0.00 0.00 68 1014.6
20260901141909 56 167 3.0 3.0 0.00 0.00 0.00 67 1014.5
20260901141404 55 171 2.0 2.0 0.00 0.00 0.00 69 1014.4
20260901140903 55 178 4.0 5.0 0.00 0.00 0.00 70 1014.6
20260901140401 54 161 3.0 3.0 0.00 0.00 0.00 73 1014.5
20260901135856 54 152 0.0 0.0 0.00 0.00 0.00 75 1014.3
20260901135351 53 150 1.0 1.0 0.00 0.00 0.00 75 1014.4
20260901134847 52 148 0.0 0.0 0.00 0.00 0.00 76 1014.4
20260901134343 52 92 0.0 1.0 0.00 0.00 0.00 78 1014.4
20260901133837 52 70 0.0 0.0 0.00 0.00 0.00 79 1014.4
20260901133336 51 60 0.0 0.0 0.00 0.00 0.00 78 1014.2
20260901132835 50 59 0.0 0.0 0.00 0.00 0.00 77 1014.1
20260901132329 50 54 0.0 0.0 0.00 0.00 0.00 79 1014.2
20260901131824 50 46 0.0 0.0 0.00 0.00 0.00 79 1014.3
20260901131323 49 45 0.0 0.0 0.00 0.00 0.00 80 1014.1
20260901130819 49 45 0.0 0.0 0.00 0.00 0.00 80 1014.2
20260901130319 49 45 0.0 0.0 0.00 0.00 0.00 79 1014.1
20260901125816 50 45 0.0 0.0 0.00 0.00 0.00 77 1014.0
20260901125311 50 45 0.0 0.0 0.00 0.00 0.00 76 1014.3
20260901124806 51 43 1.0 1.0 0.00 0.00 0.00 73 1014.1
20260901124301 51 42 1.0 1.0 0.00 0.00 0.00 73 1014.2
20260901123800 50 40 0.0 0.0 0.00 0.00 0.00 77 1014.4
20260901123255 49 40 0.0 0.0 0.00 0.00 0.00 78 1014.1
20260901122754 49 38 1.0 1.0 0.00 0.00 0.00 78 1014.1
20260901122248 49 36 1.0 1.0 0.00 0.00 0.00 78 1014.1
20260901121743 48 32 0.0 0.0 0.00 0.00 0.00 79 1014.2
20260901121238 48 32 0.0 0.0 0.00 0.00 0.00 80 1014.1
20260901120737 48 32 0.0 0.0 0.00 0.00 0.00 80 1014.1
20260901120232 48 32 0.0 0.0 0.00 0.00 0.00 80 1014.2
20260901115728 48 32 0.0 0.0 0.00 0.00 0.00 80 1014.0
20260901115224 48 32 0.0 0.0 0.00 0.00 0.00 80 1014.1
20260901114720 49 33 0.0 0.0 0.00 0.00 0.00 79 1014.1
20260901114215 49 32 0.0 0.0 0.00 0.00 0.00 78 1014.1
20260901113713 49 31 0.0 0.0 0.00 0.00 0.00 77 1014.0
20260901113209 50 31 0.0 0.0 0.00 0.00 0.00 76 1014.1
20260901112708 50 31 0.0 0.0 0.00 0.00 0.00 75 1014.2
20260901112203 51 30 0.0 0.0 0.00 0.00 0.00 74 1014.2
20260901111703 50 29 0.0 0.0 0.00 0.00 0.00 75 1014.2
20260901111202 50 29 0.0 0.0 0.00 0.00 0.00 75 1014.3
20260901110656 50 28 0.0 0.0 0.00 0.00 0.00 78 1014.5
20260901110152 49 28 0.0 0.0 0.00 0.00 0.00 79 1014.4
20260901105648 50 29 0.0 0.0 0.00 0.00 0.00 79 1014.3
20260901105148 50 28 0.0 0.0 0.00 0.00 0.00 79 1014.5
20260901104644 50 28 1.0 1.0 0.00 0.00 0.00 78 1014.3
20260901104139 50 28 2.0 2.0 0.00 0.00 0.00 82 1014.3
20260901103638 50 25 0.0 0.0 0.00 0.00 0.00 82 1014.4
20260901103134 51 26 1.0 1.0 0.00 0.00 0.00 81 1014.2
20260901102634 50 27 2.0 3.0 0.00 0.00 0.00 82 1014.3
20260901102128 49 341 0.0 1.0 0.00 0.00 0.00 82 1014.4
20260901101624 51 351 0.0 0.0 0.00 0.00 0.00 79 1014.5
20260901101123 52 21 1.0 2.0 0.00 0.00 0.00 77 1014.8
20260901100623 50 13 1.0 2.0 0.00 0.00 0.00 81 1014.5
20260901100118 49 301 1.0 1.0 0.00 0.00 0.00 87 1014.6
20260901095617 48 308 2.0 2.0 0.00 0.00 0.00 86 1014.8
20260901095114 49 295 0.0 0.0 0.00 0.00 0.00 84 1014.9
20260901094609 49 317 0.0 1.0 0.00 0.00 0.00 84 1014.8
20260901094103 49 319 3.0 3.0 0.00 0.00 0.00 86 1014.9
20260901093557 49 265 0.0 0.0 0.00 0.00 0.00 84 1014.6
20260901093052 48 265 0.0 1.0 0.00 0.00 0.00 86 1014.4
20260901092548 48 266 0.0 0.0 0.00 0.00 0.00 85 1014.8
20260901092044 49 270 0.0 0.0 0.00 0.00 0.00 84 1014.5
20260901091539 50 275 0.0 0.0 0.00 0.00 0.00 82 1014.5
20260901091034 50 281 0.0 0.0 0.00 0.00 0.00 80 1014.5
20260901090533 51 292 0.0 0.0 0.00 0.00 0.00 78 1014.6
20260901090029 50 245 2.0 2.0 0.00 0.00 0.00 80 1014.6
20260901085524 50 213 0.0 0.0 0.00 0.00 0.00 80 1014.8
20260901085021 50 213 0.0 0.0 0.00 0.00 0.00 80 1014.6
20260901084516 51 210 0.0 0.0 0.00 0.00 0.00 78 1014.6
20260901084012 51 190 0.0 0.0 0.00 0.00 0.00 77 1014.5
20260901083507 51 177 0.0 0.0 0.00 0.00 0.00 77 1014.5
20260901083004 50 212 0.0 0.0 0.00 0.00 0.00 81 1014.4
20260901082500 49 212 0.0 0.0 0.00 0.00 0.00 82 1014.5
20260901081955 49 212 0.0 0.0 0.00 0.00 0.00 82 1014.6
20260901081450 50 212 0.0 0.0 0.00 0.00 0.00 81 1014.8
20260901080945 50 212 0.0 0.0 0.00 0.00 0.00 80 1014.6
20260901080444 50 158 0.0 0.0 0.00 0.00 0.00 79 1014.8
20260901075944 50 130 0.0 0.0 0.00 0.00 0.00 80 1015.0
20260901075440 50 117 0.0 0.0 0.00 0.00 0.00 79 1014.9
20260901074934 51 98 0.0 0.0 0.00 0.00 0.00 78 1015.0
20260901074433 51 88 0.0 0.0 0.00 0.00 0.00 77 1015.0
20260901073929 51 77 0.0 0.0 0.00 0.00 0.00 78 1014.9
20260901073426 51 77 0.0 0.0 0.00 0.00 0.00 80 1015.1
20260901072926 51 157 0.0 0.0 0.00 0.00 0.00 75 1015.2
20260901072421 52 157 0.0 0.0 0.00 0.00 0.00 73 1015.2
20260901071916 53 157 0.0 0.0 0.00 0.00 0.00 68 1015.2
20260901071415 54 157 0.0 0.0 0.00 0.00 0.00 66 1015.1
20260901070914 53 157 0.0 0.0 0.00 0.00 0.00 68 1015.1
20260901070409 52 157 0.0 0.0 0.00 0.00 0.00 69 1015.1
20260901065908 51 156 0.0 0.0 0.00 0.00 0.00 72 1015.0
20260901065404 51 157 0.0 0.0 0.00 0.00 0.00 73 1015.4
20260901064859 51 157 0.0 0.0 0.00 0.00 0.00 73 1015.2
20260901064355 53 157 0.0 0.0 0.00 0.00 0.00 70 1015.1
20260901063852 53 157 0.0 0.0 0.00 0.00 0.00 68 1015.1
20260901063348 54 157 0.0 0.0 0.00 0.00 0.00 66 1015.0
20260901062844 53 157 0.0 0.0 0.00 0.00 0.00 67 1015.1
20260901062340 54 157 0.0 0.0 0.00 0.00 0.00 67 1015.3
20260901061835 54 157 0.0 0.0 0.00 0.00 0.00 66 1015.2
20260901061330 53 156 0.0 0.0 0.00 0.00 0.00 66 1015.2
20260901060826 53 156 0.0 0.0 0.00 0.00 0.00 70 1015.1
20260901060321 54 155 0.0 0.0 0.00 0.00 0.00 68 1015.4
20260901055815 54 153 0.0 0.0 0.00 0.00 0.00 66 1015.2
20260901055312 55 152 0.0 0.0 0.00 0.00 0.00 65 1015.4
20260901054809 56 141 0.0 0.0 0.00 0.00 0.00 62 1015.2
20260901054305 55 158 0.0 0.0 0.00 0.00 0.00 66 1015.3
20260901053801 55 159 0.0 0.0 0.00 0.00 0.00 68 1015.3
20260901053255 55 159 0.0 0.0 0.00 0.00 0.00 66 1015.3
20260901052751 56 158 0.0 0.0 0.00 0.00 0.00 66 1015.3
20260901052247 56 157 0.0 0.0 0.00 0.00 0.00 62 1015.3
20260901051745 55 151 0.0 0.0 0.00 0.00 0.00 64 1015.3
20260901051241 55 159 0.0 0.0 0.00 0.00 0.00 68 1015.4
20260901050736 55 148 0.0 0.0 0.00 0.00 0.00 64 1015.5
20260901050231 55 132 0.0 0.0 0.00 0.00 0.00 64 1015.4
20260901045726 56 125 0.0 0.0 0.00 0.00 0.00 63 1015.5
20260901045221 57 103 0.0 0.0 0.00 0.00 0.00 62 1015.5
20260901044716 57 52 0.0 0.0 0.00 0.00 0.00 62 1015.4
20260901044214 57 57 0.0 0.0 0.00 0.00 0.00 61 1015.4
20260901043708 57 133 0.0 0.0 0.00 0.00 0.00 62 1015.6
20260901043203 56 133 0.0 0.0 0.00 0.00 0.00 63 1015.5
20260901042702 56 126 0.0 0.0 0.00 0.00 0.00 64 1015.4
20260901042157 57 125 0.0 0.0 0.00 0.00 0.00 64 1015.5
20260901041654 57 118 0.0 0.0 0.00 0.00 0.00 63 1015.6
20260901041153 58 113 0.0 0.0 0.00 0.00 0.00 61 1015.5
20260901040648 59 91 1.0 2.0 0.00 0.00 0.00 60 1015.5
20260901040147 58 129 0.0 0.0 0.00 0.00 0.00 61 1015.4
20260901035645 58 137 0.0 0.0 0.00 0.00 0.00 62 1015.2
20260901035144 59 137 0.0 0.0 0.00 0.00 0.00 61 1015.3
20260901034638 60 137 0.0 0.0 0.00 0.00 0.00 57 1015.1
20260901034133 60 136 0.0 0.0 0.00 0.00 0.00 57 1015.3
20260901033632 60 136 0.0 0.0 0.00 0.00 0.00 57 1015.3
20260901033132 60 135 0.0 0.0 0.00 0.00 0.00 57 1015.1
20260901032630 60 136 0.0 0.0 0.00 0.00 0.00 58 1015.0
20260901032125 60 134 0.0 0.0 0.00 0.00 0.00 58 1015.0
20260901031621 60 139 0.0 0.0 0.00 0.00 0.00 60 1015.2
20260901031117 61 139 0.0 0.0 0.00 0.00 0.00 61 1014.9
20260901030616 61 139 0.0 0.0 0.00 0.00 0.00 60 1014.8
20260901030111 62 139 0.0 0.0 0.00 0.00 0.00 60 1015.0
20260901025606 62 140 0.0 0.0 0.00 0.00 0.00 60 1014.8
20260901025100 63 140 0.0 0.0 0.00 0.00 0.00 61 1014.6
20260901024555 63 139 0.0 0.0 0.00 0.00 0.00 62 1014.9
20260901024054 64 108 0.0 0.0 0.00 0.00 0.00 60 1014.9
20260901023553 64 64 1.0 1.0 0.00 0.00 0.00 59 1014.6
20260901023048 65 69 2.0 2.0 0.00 0.00 0.00 61 1014.9
20260901022543 65 79 1.0 1.0 0.00 0.00 0.00 61 1014.5
20260901022038 65 63 2.0 2.0 0.00 0.00 0.00 60 1014.6
20260901021534 66 50 2.0 2.0 0.00 0.00 0.00 58 1014.6
20260901021029 66 46 2.0 2.0 0.00 0.00 0.00 55 1014.8
20260901020525 67 49 2.0 2.0 0.00 0.00 0.00 52 1014.6
20260901020020 67 40 3.0 3.0 0.00 0.00 0.00 49 1014.6
20260901015515 68 48 3.0 3.0 0.00 0.00 0.00 47 1014.5
20260901015015 68 29 3.0 3.0 0.00 0.00 0.00 48 1014.6
20260901014510 69 39 2.0 2.0 0.00 0.00 0.00 47 1014.6
20260901014006 70 39 1.0 2.0 0.00 0.00 0.00 44 1014.9
20260901013502 71 55 2.0 2.0 0.00 0.00 0.00 41 1014.8
20260901012957 71 61 2.0 2.0 0.00 0.00 0.00 40 1014.9
20260901012457 72 49 2.0 2.0 0.00 0.00 0.00 39 1014.8
20260901011952 73 71 2.0 2.0 0.00 0.00 0.00 38 1014.8
20260901011448 73 60 2.0 2.0 0.00 0.00 0.00 38 1014.9
20260901010946 74 51 2.0 2.0 0.00 0.00 0.00 37 1015.0
20260901010441 74 61 5.0 6.0 0.00 0.00 0.00 36 1014.9
20260901005941 75 90 4.0 6.0 0.00 0.00 0.00 36 1015.0
20260901005436 75 83 4.0 5.0 0.00 0.00 0.00 34 1015.1
20260901004930 75 81 4.0 5.0 0.00 0.00 0.00 33 1015.1
20260901004429 75 63 5.0 5.0 0.00 0.00 0.00 34 1015.1
20260901003924 75 83 5.0 6.0 0.00 0.00 0.00 33 1015.0
20260901003415 76 94 2.0 3.0 0.00 0.00 0.00 33 1015.1
20260901002913 76 47 2.0 3.0 0.00 0.00 0.00 33 1015.1
20260901002412 76 101 2.0 3.0 0.00 0.00 0.00 33 1015.0
20260901001907 76 105 5.0 6.0 0.00 0.00 0.00 31 1015.1
20260901001403 76 49 1.0 1.0 0.00 0.00 0.00 33 1015.2
20260901000858 75 41 1.0 1.0 0.00 0.00 0.00 34 1015.3
20260901000353 77 222 7.0 8.0 0.00 0.00 0.00 34 1015.2
20260831235851 77 130 0.0 0.0 0.00 0.00 0.00 31 1015.2
20260831235348 77 17 3.0 6.0 0.00 0.00 0.00 32 1015.2
20260831234848 79 280 0.0 0.0 0.00 0.00 0.00 29 1015.1
20260831234343 77 258 0.0 0.0 0.00 0.00 0.00 31 1015.3
20260831233838 77 226 2.0 2.0 0.00 0.00 0.00 30 1015.4
20260831233333 78 244 0.0 0.0 0.00 0.00 0.00 30 1015.2
20260831232829 78 233 0.0 0.0 0.00 0.00 0.00 28 1015.4
20260831232325 76 271 1.0 1.0 0.00 0.00 0.00 33 1015.5
20260831231820 77 289 1.0 2.0 0.00 0.00 0.00 30 1015.4
20260831231317 76 235 3.0 3.0 0.00 0.00 0.00 33 1015.6
20260831230812 76 220 3.0 3.0 0.00 0.00 0.00 33 1015.3
20260831230307 77 213 0.0 0.0 0.00 0.00 0.00 30 1015.6
20260831225806 75 188 0.0 1.0 0.00 0.00 0.00 32 1015.7
20260831225301 75 233 1.0 1.0 0.00 0.00 0.00 31 1015.6
20260831224756 76 213 3.0 3.0 0.00 0.00 0.00 33 1015.7
20260831224251 76 241 0.0 0.0 0.00 0.00 0.00 32 1015.6
20260831223746 76 252 0.0 0.0 0.00 0.00 0.00 33 1015.6
20260831223243 76 276 1.0 1.0 0.00 0.00 0.00 33 1015.7
20260831222738 76 272 0.0 0.0 0.00 0.00 0.00 37 1015.9
20260831222234 75 237 2.0 3.0 0.00 0.00 0.00 32 1015.9
20260831221730 75 206 2.0 2.0 0.00 0.00 0.00 33 1015.7
20260831221225 75 200 3.0 3.0 0.00 0.00 0.00 33 1015.9
20260831220719 74 15 3.0 3.0 0.00 0.00 0.00 33 1016.0
20260831220215 76 13 7.0 9.0 0.00 0.00 0.00 33 1016.0
20260831215710 74 3 5.0 6.0 0.00 0.00 0.00 33 1015.9
20260831215206 76 352 4.0 5.0 0.00 0.00 0.00 34 1016.0
20260831214703 75 270 1.0 1.0 0.00 0.00 0.00 36 1015.9
20260831214159 75 288 3.0 3.0 0.00 0.00 0.00 37 1016.1
20260831213655 75 230 0.0 0.0 0.00 0.00 0.00 33 1016.1
20260831213150 75 228 0.0 0.0 0.00 0.00 0.00 32 1016.3
20260831212646 75 243 2.0 3.0 0.00 0.00 0.00 32 1016.2
20260831212143 74 190 5.0 6.0 0.00 0.00 0.00 35 1016.0
20260831211641 74 230 3.0 3.0 0.00 0.00 0.00 36 1016.2
20260831211135 75 253 3.0 3.0 0.00 0.00 0.00 34 1016.1
20260831210630 75 207 1.0 1.0 0.00 0.00 0.00 37 1016.2
20260831210127 76 308 1.0 1.0 0.00 0.00 0.00 34 1016.2
20260831205625 75 248 1.0 1.0 0.00 0.00 0.00 35 1016.2
20260831205122 74 229 7.0 8.0 0.00 0.00 0.00 37 1016.3
20260831204621 74 317 1.0 1.0 0.00 0.00 0.00 35 1016.4
20260831204120 75 275 1.0 2.0 0.00 0.00 0.00 36 1016.4
20260831203615 75 312 1.0 1.0 0.00 0.00 0.00 38 1016.4
20260831203114 75 232 1.0 2.0 0.00 0.00 0.00 37 1016.4
20260831202614 75 340 0.0 0.0 0.00 0.00 0.00 39 1016.7
20260831202113 74 328 0.0 0.0 0.00 0.00 0.00 38 1016.7
20260831201612 73 289 0.0 0.0 0.00 0.00 0.00 40 1016.5
20260831201107 72 358 20.0 24.0 0.00 0.00 0.00 37 1016.4
20260831200603 72 192 2.0 2.0 0.00 0.00 0.00 38 1016.5
20260831200057 72 167 4.0 6.0 0.00 0.00 0.00 39 1016.7
20260831195553 73 214 3.0 5.0 0.00 0.00 0.00 37 1016.9
20260831195048 73 252 1.0 1.0 0.00 0.00 0.00 39 1016.9
20260831194543 74 235 4.0 7.0 0.00 0.00 0.00 41 1016.8
20260831194038 72 233 3.0 3.0 0.00 0.00 0.00 40 1016.9
20260831193533 72 255 5.0 6.0 0.00 0.00 0.00 38 1016.9
20260831193028 72 240 4.0 6.0 0.00 0.00 0.00 41 1017.1
20260831192523 72 235 3.0 3.0 0.00 0.00 0.00 40 1017.2
20260831192019 71 235 3.0 3.0 0.00 0.00 0.00 39 1017.1
20260831191515 71 250 3.0 5.0 0.00 0.00 0.00 40 1017.1
20260831191010 71 211 4.0 5.0 0.00 0.00 0.00 39 1017.4
20260831190500 71 268 2.0 2.0 0.00 0.00 0.00 40 1017.4
20260831185958 71 263 4.0 6.0 0.00 0.00 0.00 42 1017.3
20260831185454 71 234 3.0 5.0 0.00 0.00 0.00 42 1017.4
20260831184954 71 267 3.0 3.0 0.00 0.00 0.00 45 1017.4
20260831184449 71 213 3.0 3.0 0.00 0.00 0.00 41 1017.5
20260831183944 71 21 3.0 3.0 0.00 0.00 0.00 42 1017.4
20260831183443 72 357 2.0 3.0 0.00 0.00 0.00 42 1017.7
20260831182937 71 263 3.0 5.0 0.00 0.00 0.00 43 1017.7
20260831182433 70 27 2.0 2.0 0.00 0.00 0.00 42 1017.7
20260831181928 72 267 1.0 2.0 0.00 0.00 0.00 42 1017.9
20260831181423 72 320 2.0 2.0 0.00 0.00 0.00 43 1017.8
20260831180918 71 215 2.0 2.0 0.00 0.00 0.00 47 1018.0
20260831180412 70 221 2.0 2.0 0.00 0.00 0.00 42 1017.9
20260831175911 71 240 3.0 6.0 0.00 0.00 0.00 43 1017.9
20260831175408 71 243 5.0 7.0 0.00 0.00 0.00 43 1017.9
20260831174904 70 310 1.0 2.0 0.00 0.00 0.00 45 1018.0
20260831174359 71 267 1.0 2.0 0.00 0.00 0.00 44 1018.0
20260831173857 71 264 3.0 5.0 0.00 0.00 0.00 45 1018.0
20260831173352 71 237 0.0 1.0 0.00 0.00 0.00 46 1018.2
20260831172847 70 199 1.0 2.0 0.00 0.00 0.00 45 1018.0
20260831172343 69 337 2.0 2.0 0.00 0.00 0.00 44 1018.0
20260831171843 70 355 4.0 5.0 0.00 0.00 0.00 43 1018.2
20260831171339 70 309 1.0 1.0 0.00 0.00 0.00 45 1018.0
20260831170836 69 314 1.0 2.0 0.00 0.00 0.00 44 1017.9
20260831170331 69 274 3.0 3.0 0.00 0.00 0.00 45 1017.9
20260831165827 69 3 3.0 3.0 0.00 0.00 0.00 44 1017.9
20260831165324 69 239 1.0 2.0 0.00 0.00 0.00 46 1018.0
20260831164820 69 253 2.0 3.0 0.00 0.00 0.00 45 1017.9
20260831164316 69 258 0.0 0.0 0.00 0.00 0.00 47 1017.9
20260831163811 68 26 1.0 2.0 0.00 0.00 0.00 46 1017.9
20260831163307 68 264 1.0 2.0 0.00 0.00 0.00 46 1017.8
20260831162805 68 293 4.0 5.0 0.00 0.00 0.00 45 1017.9
20260831162300 68 270 1.0 1.0 0.00 0.00 0.00 47 1017.8
20260831161759 68 308 3.0 5.0 0.00 0.00 0.00 47 1017.8
20260831161255 67 266 1.0 1.0 0.00 0.00 0.00 49 1017.8
20260831160756 66 261 4.0 6.0 0.00 0.00 0.00 48 1017.8
20260831160250 65 205 1.0 1.0 0.00 0.00 0.00 50 1017.8
20260831155745 66 187 1.0 1.0 0.00 0.00 0.00 54 1017.9
20260831155240 64 286 2.0 2.0 0.00 0.00 0.00 50 1017.9
20260831154736 64 268 1.0 2.0 0.00 0.00 0.00 51 1017.9
20260831154232 64 295 3.0 5.0 0.00 0.00 0.00 52 1017.7